UAL57 KEWR-LFPG

Flight info

Callsign UAL57
Flight time N/A
Altitude 35000
Route MERIT DCT HFD DCT PUT DCT BOS DCT KANNI N343B JOOPY/M084F350 NATW XETBO DCT ARKIL/N0480F350 DCT ANNET UM25 INGOR/N0456F280 UM25 LUKIP
Aircraft B772/H-SDE2E3FGHIJ5LORVWXY/LB1D1

Departure

Time 2026-05-05 22:14
Airport Newark Liberty International Airport (KEWR)

Arrival

Time N/A
Airport Charles de Gaulle International Airport (LFPG)
Time Latitude Longitude Altitude Speed Heading
2026-05-05 21:09 40.69395 -74.17363 26 ft 0 kts 13°
2026-05-05 22:03 40.69388 -74.17365 26 ft 3 kts 13°
2026-05-05 22:03 40.69369 -74.17371 24 ft 3 kts
2026-05-05 22:03 40.69356 -74.17367 25 ft 2 kts 313°
2026-05-05 22:03 40.69348 -74.17355 25 ft 3 kts 324°
2026-05-05 22:04 40.69335 -74.17346 25 ft 3 kts 22°
2026-05-05 22:04 40.69329 -74.17354 23 ft 2 kts 96°
2026-05-05 22:04 40.69331 -74.17368 26 ft 2 kts 103°
2026-05-05 22:04 40.69335 -74.17392 25 ft 2 kts 103°
2026-05-05 22:05 40.69336 -74.17400 26 ft 0 kts 103°
2026-05-05 22:08 40.69334 -74.17387 26 ft 3 kts 104°
2026-05-05 22:08 40.69327 -74.17359 26 ft 3 kts 108°
2026-05-05 22:08 40.69315 -74.17322 26 ft 5 kts 115°
2026-05-05 22:09 40.69299 -74.17284 26 ft 5 kts 120°
2026-05-05 22:09 40.69267 -74.17218 26 ft 15 kts 121°
2026-05-05 22:09 40.69219 -74.17093 32 ft 11 kts 110°
2026-05-05 22:09 40.69228 -74.17040 29 ft 2 kts 49°
2026-05-05 22:10 40.69266 -74.17007 31 ft 12 kts 28°
2026-05-05 22:10 40.69378 -74.16936 27 ft 20 kts 26°
2026-05-05 22:10 40.69507 -74.16854 26 ft 20 kts 26°
2026-05-05 22:10 40.69634 -74.16773 26 ft 20 kts 26°
2026-05-05 22:11 40.69761 -74.16692 29 ft 20 kts 25°
2026-05-05 22:11 40.69887 -74.16612 29 ft 20 kts 26°
2026-05-05 22:11 40.70003 -74.16539 27 ft 15 kts 25°
2026-05-05 22:11 40.70055 -74.16499 30 ft 3 kts 48°
2026-05-05 22:12 40.70057 -74.16495 30 ft 0 kts 51°
2026-05-05 22:12 40.70060 -74.16487 29 ft 3 kts 62°
2026-05-05 22:12 40.70064 -74.16456 28 ft 5 kts 88°
2026-05-05 22:13 40.70054 -74.16396 27 ft 8 kts 119°
2026-05-05 22:13 40.70001 -74.16380 27 ft 13 kts 201°
2026-05-05 22:13 40.69824 -74.16494 28 ft 54 kts 206°
2026-05-05 22:13 40.69281 -74.16837 27 ft 119 kts 205°
2026-05-05 22:14 40.68357 -74.17415 85 ft 169 kts 209°
2026-05-05 22:14 40.67290 -74.18042 809 ft 170 kts 199°
2026-05-05 22:14 40.66063 -74.18079 1516 ft 179 kts 178°
2026-05-05 22:14 40.64755 -74.17846 1604 ft 197 kts 177°
2026-05-05 22:15 40.63364 -74.17700 1700 ft 204 kts 192°
2026-05-05 22:15 40.62027 -74.18316 1910 ft 208 kts 208°
2026-05-05 22:15 40.60680 -74.19144 2057 ft 225 kts 207°
2026-05-05 22:15 40.59269 -74.20132 2354 ft 231 kts 219°
2026-05-05 22:16 40.58311 -74.21820 2706 ft 238 kts 249°
2026-05-05 22:16 40.58164 -74.24019 3124 ft 250 kts 278°
2026-05-05 22:16 40.58927 -74.26101 3791 ft 262 kts 306°
2026-05-05 22:16 40.60422 -74.27544 4498 ft 276 kts 332°
2026-05-05 22:17 40.62331 -74.28071 5165 ft 287 kts 356°
2026-05-05 22:17 40.64317 -74.27548 5808 ft 298 kts 21°
2026-05-05 22:17 40.66027 -74.25988 6433 ft 302 kts 45°
2026-05-05 22:17 40.67443 -74.23910 6914 ft 309 kts 48°
2026-05-05 22:18 40.68370 -74.22483 7350 ft 309 kts 48°
2026-05-05 22:18 40.69758 -74.20316 8036 ft 309 kts 48°
2026-05-05 22:18 40.71163 -74.18117 8690 ft 311 kts 47°
2026-05-05 22:18 40.72546 -74.15959 9313 ft 314 kts 47°
2026-05-05 22:19 40.73974 -74.13741 9919 ft 317 kts 46°
2026-05-05 22:19 40.75414 -74.11513 10366 ft 325 kts 46°
2026-05-05 22:19 40.76937 -74.09168 10494 ft 345 kts 46°
2026-05-05 22:19 40.78529 -74.06724 10660 ft 364 kts 46°
2026-05-05 22:20 40.80236 -74.04103 10809 ft 385 kts 46°
2026-05-05 22:20 40.82013 -74.01370 11112 ft 400 kts 46°
2026-05-05 22:20 40.83850 -73.98542 11667 ft 409 kts 46°
2026-05-05 22:20 40.85710 -73.95670 12320 ft 414 kts 46°
2026-05-05 22:21 40.87589 -73.92770 13009 ft 418 kts 46°
2026-05-05 22:21 40.89487 -73.89838 13703 ft 422 kts 46°
2026-05-05 22:21 40.91404 -73.86876 14331 ft 425 kts 46°
2026-05-05 22:21 40.93331 -73.83896 14967 ft 428 kts 46°
2026-05-05 22:22 40.95270 -73.80894 15607 ft 431 kts 46°
2026-05-05 22:22 40.97229 -73.77861 16222 ft 434 kts 46°
2026-05-05 22:22 40.99170 -73.74853 16816 ft 437 kts 47°
2026-05-05 22:22 41.01145 -73.71789 17412 ft 440 kts 47°
2026-05-05 22:23 41.03161 -73.68657 18002 ft 443 kts 47°
2026-05-05 22:23 41.05165 -73.65541 18511 ft 446 kts 47°
2026-05-05 22:23 41.07183 -73.62399 18999 ft 448 kts 47°
2026-05-05 22:23 41.09184 -73.59282 19482 ft 451 kts 47°
2026-05-05 22:24 41.11223 -73.56102 19956 ft 454 kts 47°
2026-05-05 22:24 41.13272 -73.52903 20439 ft 456 kts 47°
2026-05-05 22:24 41.15329 -73.49687 20890 ft 459 kts 47°
2026-05-05 22:24 41.17404 -73.46441 21350 ft 462 kts 47°
2026-05-05 22:25 41.19488 -73.43176 21794 ft 465 kts 47°
2026-05-05 22:25 41.21580 -73.39895 22262 ft 467 kts 47°
2026-05-05 22:25 41.23691 -73.36581 22706 ft 470 kts 47°
2026-05-05 22:25 41.25811 -73.33250 23155 ft 473 kts 47°
2026-05-05 22:26 41.27944 -73.29894 23569 ft 476 kts 47°
2026-05-05 22:26 41.30081 -73.26527 23979 ft 477 kts 47°
2026-05-05 22:26 41.32226 -73.23144 24394 ft 479 kts 47°
2026-05-05 22:26 41.34374 -73.19753 24789 ft 480 kts 46°
2026-05-05 22:27 41.36527 -73.16351 25153 ft 482 kts 47°
2026-05-05 22:27 41.38600 -73.12821 25514 ft 486 kts 52°
2026-05-05 22:27 41.40412 -73.09003 25834 ft 489 kts 56°
2026-05-05 22:27 41.42125 -73.05075 26172 ft 491 kts 57°
2026-05-05 22:28 41.43808 -73.01171 26491 ft 493 kts 57°
2026-05-05 22:28 41.45544 -72.97155 26816 ft 494 kts 57°
2026-05-05 22:28 41.47273 -72.93182 27120 ft 496 kts 56°
2026-05-05 22:28 41.48990 -72.89257 27407 ft 497 kts 56°
2026-05-05 22:29 41.50739 -72.85274 27689 ft 499 kts 56°
2026-05-05 22:29 41.52496 -72.81274 27977 ft 500 kts 56°
2026-05-05 22:29 41.54256 -72.77264 28237 ft 502 kts 56°
2026-05-05 22:29 41.56023 -72.73229 28482 ft 503 kts 56°
2026-05-05 22:30 41.57788 -72.69193 28711 ft 505 kts 56°
2026-05-05 22:30 41.59559 -72.65135 28918 ft 506 kts 56°
2026-05-05 22:30 41.61330 -72.61071 29132 ft 507 kts 56°
2026-05-05 22:30 41.63105 -72.56996 29332 ft 508 kts 56°
2026-05-05 22:31 41.64886 -72.52913 29524 ft 509 kts 55°
2026-05-05 22:31 41.66701 -72.48846 29753 ft 509 kts 55°
2026-05-05 22:31 41.68530 -72.44803 30031 ft 507 kts 54°
2026-05-05 22:31 41.70359 -72.40770 30299 ft 505 kts 54°
2026-05-05 22:32 41.72176 -72.36758 30561 ft 504 kts 54°
2026-05-05 22:32 41.73983 -72.32751 30805 ft 503 kts 54°
2026-05-05 22:32 41.75785 -72.28741 31033 ft 502 kts 54°
2026-05-05 22:32 41.77578 -72.24739 31252 ft 501 kts 54°
2026-05-05 22:33 41.79371 -72.20727 31451 ft 500 kts 54°
2026-05-05 22:33 41.81153 -72.16734 31667 ft 499 kts 54°
2026-05-05 22:33 41.82936 -72.12732 31893 ft 498 kts 54°
2026-05-05 22:33 41.84711 -72.08747 32109 ft 498 kts 54°
2026-05-05 22:34 41.86458 -72.04818 32321 ft 497 kts 54°
2026-05-05 22:34 41.88222 -72.00846 32561 ft 495 kts 54°
2026-05-05 22:34 41.89984 -71.96872 32788 ft 494 kts 54°
2026-05-05 22:34 41.91738 -71.92913 33015 ft 493 kts 54°
2026-05-05 22:35 41.93488 -71.88958 33203 ft 492 kts 54°
2026-05-05 22:35 41.95235 -71.85006 33429 ft 491 kts 54°
2026-05-05 22:35 41.97003 -71.81082 33650 ft 489 kts 52°
2026-05-05 22:35 41.98824 -71.77227 33847 ft 487 kts 51°
2026-05-05 22:36 41.99979 -71.74827 33959 ft 487 kts 51°
2026-05-05 22:36 42.01825 -71.71013 34089 ft 487 kts 51°
2026-05-05 22:36 42.03671 -71.67189 34200 ft 487 kts 51°
2026-05-05 22:37 42.07345 -71.59502 34402 ft 489 kts 52°
2026-05-05 22:37 42.09176 -71.55637 34529 ft 489 kts 52°
2026-05-05 22:37 42.10979 -71.51821 34630 ft 489 kts 52°
2026-05-05 22:38 42.14633 -71.44069 34777 ft 491 kts 52°
2026-05-05 22:38 42.18295 -71.36281 34852 ft 492 kts 52°
2026-05-05 22:39 42.21864 -71.28674 34856 ft 492 kts 53°
2026-05-05 22:39 42.25525 -71.20852 34861 ft 493 kts 53°
2026-05-05 22:40 42.29189 -71.13003 34857 ft 494 kts 53°
2026-05-05 22:40 42.32836 -71.05159 34839 ft 494 kts 54°
2026-05-05 22:41 42.35615 -70.96572 34836 ft 504 kts 70°
2026-05-05 22:41 42.36872 -70.87206 34852 ft 509 kts 80°
2026-05-05 22:42 42.37607 -70.77665 34842 ft 509 kts 81°
2026-05-05 22:42 42.38342 -70.68135 34853 ft 509 kts 81°
2026-05-05 22:43 42.39112 -70.58676 34861 ft 510 kts 80°
2026-05-05 22:43 42.39905 -70.49144 34875 ft 510 kts 80°
2026-05-05 22:44 42.40692 -70.39605 34881 ft 510 kts 80°
2026-05-05 22:44 42.41470 -70.30052 34897 ft 510 kts 81°
2026-05-05 22:45 42.42237 -70.20500 34901 ft 511 kts 81°
2026-05-05 22:45 42.42997 -70.10941 34907 ft 511 kts 81°
2026-05-05 22:46 42.43750 -70.01357 34900 ft 511 kts 81°
2026-05-05 22:46 42.44494 -69.91784 34912 ft 511 kts 81°
2026-05-05 22:47 42.45226 -69.82270 34914 ft 512 kts 81°
2026-05-05 22:47 42.45957 -69.72669 34919 ft 512 kts 81°
2026-05-05 22:48 42.46679 -69.63075 34912 ft 512 kts 81°
2026-05-05 22:48 42.47393 -69.53476 34920 ft 512 kts 82°
2026-05-05 22:49 42.48099 -69.43867 34942 ft 513 kts 82°
2026-05-05 22:49 42.48799 -69.34241 34935 ft 513 kts 82°
2026-05-05 22:50 42.49487 -69.24665 34938 ft 514 kts 82°
2026-05-05 22:50 42.50172 -69.15022 34945 ft 514 kts 82°
2026-05-05 22:51 42.50849 -69.05370 34948 ft 515 kts 83°
2026-05-05 22:51 42.51519 -68.95687 34953 ft 516 kts 83°
2026-05-05 22:52 42.52181 -68.86010 34957 ft 516 kts 83°
2026-05-05 22:52 42.52836 -68.76304 34958 ft 517 kts 83°
2026-05-05 22:53 42.53484 -68.66590 34962 ft 517 kts 84°
2026-05-05 22:53 42.54125 -68.56860 34966 ft 518 kts 84°
2026-05-05 22:54 42.54757 -68.47124 34972 ft 519 kts 84°
2026-05-05 22:54 42.55379 -68.37426 34976 ft 519 kts 84°
2026-05-05 22:55 42.55996 -68.27670 34977 ft 520 kts 84°
2026-05-05 22:55 42.56606 -68.17890 34982 ft 520 kts 84°
2026-05-05 22:56 42.57209 -68.08102 34983 ft 521 kts 84°
2026-05-05 22:56 42.57803 -67.98306 34992 ft 521 kts 85°
2026-05-05 22:57 42.58390 -67.88494 34992 ft 522 kts 85°
2026-05-05 22:57 42.58969 -67.78670 34996 ft 522 kts 85°
2026-05-05 22:58 42.59540 -67.68838 35002 ft 523 kts 85°
2026-05-05 22:58 42.60104 -67.58985 35012 ft 524 kts 85°
2026-05-05 22:59 42.60656 -67.49177 35008 ft 525 kts 85°
2026-05-05 22:59 42.61205 -67.39281 35021 ft 526 kts 85°
2026-05-05 23:00 42.62014 -67.24415 35025 ft 527 kts 86°
2026-05-05 23:00 42.62545 -67.14465 35024 ft 528 kts 86°
2026-05-05 23:01 42.63272 -67.04552 35020 ft 528 kts 77°
2026-05-05 23:01 42.65726 -66.95218 35036 ft 525 kts 60°
2026-05-05 23:02 42.69661 -66.86924 35041 ft 522 kts 52°
2026-05-05 23:02 42.73848 -66.78821 35042 ft 525 kts 52°
2026-05-05 23:03 42.77989 -66.70694 35048 ft 527 kts 52°
2026-05-05 23:03 42.82132 -66.62416 35039 ft 528 kts 53°
2026-05-05 23:04 42.86240 -66.54138 35034 ft 527 kts 53°
2026-05-05 23:04 42.90348 -66.45837 35038 ft 527 kts 53°
2026-05-05 23:05 42.93754 -66.38945 35028 ft 527 kts 53°
2026-05-05 23:05 42.97852 -66.30636 35037 ft 527 kts 53°
2026-05-05 23:06 43.01947 -66.22313 35025 ft 528 kts 53°
2026-05-05 23:06 43.06042 -66.13963 35036 ft 529 kts 53°
2026-05-05 23:07 43.10109 -66.05648 35022 ft 529 kts 53°
2026-05-05 23:07 43.14203 -65.97252 35028 ft 530 kts 53°
2026-05-05 23:08 43.18292 -65.88845 35018 ft 530 kts 53°
2026-05-05 23:08 43.22375 -65.80425 35033 ft 531 kts 53°
2026-05-05 23:09 43.26462 -65.71972 35025 ft 531 kts 54°
2026-05-05 23:09 43.30538 -65.63519 35033 ft 531 kts 54°
2026-05-05 23:10 43.34613 -65.55042 35026 ft 532 kts 54°
2026-05-05 23:10 43.38684 -65.46549 35036 ft 532 kts 54°
2026-05-05 23:11 43.42744 -65.38057 35027 ft 532 kts 54°
2026-05-05 23:11 43.46777 -65.29595 35037 ft 531 kts 54°
2026-05-05 23:12 43.50824 -65.21080 35028 ft 532 kts 54°
2026-05-05 23:12 43.54868 -65.12546 35040 ft 531 kts 54°
2026-05-05 23:13 43.58904 -65.04004 35035 ft 532 kts 54°
2026-05-05 23:13 43.62937 -64.95444 35052 ft 532 kts 54°
2026-05-05 23:14 43.66969 -64.86861 35036 ft 532 kts 54°
2026-05-05 23:14 43.70992 -64.78270 35045 ft 533 kts 54°
2026-05-05 23:15 43.75016 -64.69654 35045 ft 533 kts 54°
2026-05-05 23:15 43.79033 -64.61027 35048 ft 534 kts 54°
2026-05-05 23:16 43.83022 -64.52435 35041 ft 534 kts 55°
2026-05-05 23:16 43.87029 -64.43777 35053 ft 534 kts 55°
2026-05-05 23:17 43.91033 -64.35102 35040 ft 534 kts 55°
2026-05-05 23:17 43.95029 -64.26415 35054 ft 534 kts 55°
2026-05-05 23:18 43.99020 -64.17716 35040 ft 534 kts 55°
2026-05-05 23:18 44.03000 -64.09012 35052 ft 534 kts 55°
2026-05-05 23:19 44.06976 -64.00293 35040 ft 534 kts 55°
2026-05-05 23:19 44.10942 -63.91570 35047 ft 533 kts 55°
2026-05-05 23:20 44.14906 -63.82823 35037 ft 533 kts 55°
2026-05-05 23:20 44.18858 -63.74077 35045 ft 533 kts 56°
2026-05-05 23:21 44.22801 -63.65326 35032 ft 533 kts 56°
2026-05-05 23:21 44.26733 -63.56570 35046 ft 532 kts 56°
2026-05-05 23:22 44.30661 -63.47799 35031 ft 532 kts 56°
2026-05-05 23:22 44.34552 -63.39084 35037 ft 532 kts 56°
2026-05-05 23:23 44.38455 -63.30313 35030 ft 531 kts 56°
2026-05-05 23:23 44.42348 -63.21539 35051 ft 531 kts 56°
2026-05-05 23:24 44.46236 -63.12749 35047 ft 531 kts 56°
2026-05-05 23:24 44.50114 -63.03957 35058 ft 530 kts 56°
2026-05-05 23:25 44.53980 -62.95163 35053 ft 530 kts 56°
2026-05-05 23:25 44.57840 -62.86356 35062 ft 529 kts 56°
2026-05-05 23:26 44.61686 -62.77554 35055 ft 529 kts 57°
2026-05-05 23:26 44.65524 -62.68742 35065 ft 528 kts 57°
2026-05-05 23:27 44.69347 -62.59939 35059 ft 527 kts 57°
2026-05-05 23:27 44.73137 -62.51186 35076 ft 527 kts 57°
2026-05-05 23:28 44.76940 -62.42373 34616 ft 526 kts 57°
2026-05-05 23:28 44.78812 -62.38027 34721 ft 509 kts 57°
2026-05-05 23:28 44.80622 -62.33811 34858 ft 496 kts 57°
2026-05-05 23:29 44.82402 -62.29662 35000 ft 494 kts 57°
2026-05-05 23:29 44.84181 -62.25512 35082 ft 495 kts 57°
2026-05-05 23:29 44.87756 -62.17160 35097 ft 500 kts 57°
2026-05-05 23:30 44.91352 -62.08732 35095 ft 503 kts 57°
2026-05-05 23:30 44.94968 -62.00228 35100 ft 506 kts 57°
2026-05-05 23:31 44.98591 -61.91682 35091 ft 508 kts 57°
2026-05-05 23:31 45.02192 -61.83160 35091 ft 509 kts 57°
2026-05-05 23:32 45.05818 -61.74554 35075 ft 508 kts 57°
2026-05-05 23:32 45.09428 -61.65959 35087 ft 508 kts 57°
2026-05-05 23:33 45.13028 -61.57362 35086 ft 507 kts 57°
2026-05-05 23:33 45.16621 -61.48757 35079 ft 506 kts 57°
2026-05-05 23:34 45.20198 -61.40165 35062 ft 506 kts 57°
2026-05-05 23:34 45.23747 -61.31612 35077 ft 506 kts 57°
2026-05-05 23:35 45.27321 -61.22975 35059 ft 507 kts 57°
2026-05-05 23:35 45.30885 -61.14334 35076 ft 507 kts 57°
2026-05-05 23:36 45.34445 -61.05675 35044 ft 508 kts 58°
2026-05-05 23:36 45.38007 -60.96986 35046 ft 508 kts 58°
2026-05-05 23:37 45.41556 -60.88299 35041 ft 508 kts 58°
2026-05-05 23:37 45.45084 -60.79638 35039 ft 508 kts 58°
2026-05-05 23:38 45.48625 -60.70918 35046 ft 508 kts 58°
2026-05-05 23:38 45.52158 -60.62190 35043 ft 508 kts 58°
2026-05-05 23:39 45.55687 -60.53446 35047 ft 508 kts 58°
2026-05-05 23:39 45.59209 -60.44690 35048 ft 508 kts 58°
2026-05-05 23:40 45.62725 -60.35921 35049 ft 508 kts 58°
2026-05-05 23:40 45.66229 -60.27155 35055 ft 508 kts 58°
2026-05-05 23:41 45.69734 -60.18361 35055 ft 508 kts 58°
2026-05-05 23:41 45.73222 -60.09580 35061 ft 509 kts 58°
2026-05-05 23:42 45.76716 -60.00754 35060 ft 509 kts 58°
2026-05-05 23:42 45.80200 -59.91928 35058 ft 509 kts 58°
2026-05-05 23:43 45.83679 -59.83084 35065 ft 509 kts 58°
2026-05-05 23:43 45.87139 -59.74261 35065 ft 510 kts 58°
2026-05-05 23:44 45.90613 -59.65374 35061 ft 510 kts 58°
2026-05-05 23:44 45.94085 -59.56463 35064 ft 510 kts 58°
2026-05-05 23:45 45.97549 -59.47542 35068 ft 511 kts 58°
2026-05-05 23:45 46.01003 -59.38622 35069 ft 511 kts 58°
2026-05-05 23:46 46.04434 -59.29730 35072 ft 511 kts 58°
2026-05-05 23:46 46.07877 -59.20777 35076 ft 511 kts 58°
2026-05-05 23:47 46.11311 -59.11817 35083 ft 511 kts 58°
2026-05-05 23:47 46.14738 -59.02849 35085 ft 510 kts 58°
2026-05-05 23:48 46.18153 -58.93880 35088 ft 510 kts 58°
2026-05-05 23:48 46.21563 -58.84895 35089 ft 510 kts 58°
2026-05-05 23:49 46.24941 -58.75967 35090 ft 510 kts 58°
2026-05-05 23:49 46.28332 -58.66974 35090 ft 509 kts 58°
2026-05-05 23:50 46.31716 -58.57969 35088 ft 509 kts 58°
2026-05-05 23:50 46.35090 -58.48962 35086 ft 509 kts 58°
2026-05-05 23:51 46.38459 -58.39936 35092 ft 509 kts 58°
2026-05-05 23:51 46.41819 -58.30907 35092 ft 509 kts 58°
2026-05-05 23:52 46.45175 -58.21857 35093 ft 509 kts 58°
2026-05-05 23:52 46.48523 -58.12797 35091 ft 509 kts 58°
2026-05-05 23:53 46.51862 -58.03733 35093 ft 509 kts 58°
2026-05-05 23:53 46.54630 -57.96195 35094 ft 509 kts 58°
2026-05-05 23:54 46.57962 -57.87092 35094 ft 510 kts 58°
2026-05-05 23:54 46.61285 -57.77985 35093 ft 510 kts 58°
2026-05-05 23:55 46.64602 -57.68861 35095 ft 510 kts 58°
2026-05-05 23:55 46.67913 -57.59722 35095 ft 510 kts 58°
2026-05-05 23:56 46.71192 -57.50643 35097 ft 510 kts 58°
2026-05-05 23:56 46.74486 -57.41488 35096 ft 510 kts 58°
2026-05-05 23:57 46.77776 -57.32316 35094 ft 510 kts 58°
2026-05-05 23:57 46.81055 -57.23142 35100 ft 510 kts 58°
2026-05-05 23:58 46.84327 -57.13955 35099 ft 510 kts 59°
2026-05-05 23:58 46.87591 -57.04758 35101 ft 509 kts 59°
2026-05-05 23:59 46.90845 -56.95557 35103 ft 509 kts 59°
2026-05-05 23:59 46.94094 -56.86340 35105 ft 509 kts 59°
2026-05-06 00:00 46.97327 -56.77134 35106 ft 509 kts 59°
2026-05-06 00:00 47.00555 -56.67913 35104 ft 508 kts 59°
2026-05-06 00:01 47.03778 -56.58673 35103 ft 508 kts 59°
2026-05-06 00:01 47.06985 -56.49446 35092 ft 508 kts 59°
2026-05-06 00:02 47.10189 -56.40196 35084 ft 508 kts 59°
2026-05-06 00:02 47.13366 -56.30990 35082 ft 508 kts 59°
2026-05-06 00:03 47.16555 -56.21719 35073 ft 509 kts 59°
2026-05-06 00:03 47.19740 -56.12423 35066 ft 509 kts 59°
2026-05-06 00:04 47.22916 -56.03122 35067 ft 509 kts 59°
2026-05-06 00:04 47.26085 -55.93809 35061 ft 509 kts 59°
2026-05-06 00:05 47.30822 -55.79822 35036 ft 508 kts 59°
2026-05-06 00:06 47.33965 -55.70504 35034 ft 507 kts 59°
2026-05-06 00:06 47.37080 -55.61233 35039 ft 507 kts 59°
2026-05-06 00:07 47.40223 -55.51843 35050 ft 507 kts 59°
2026-05-06 00:07 47.43315 -55.42576 35066 ft 506 kts 59°
2026-05-06 00:08 47.46419 -55.33239 35073 ft 506 kts 59°
2026-05-06 00:08 47.49516 -55.23889 35083 ft 506 kts 59°
2026-05-06 00:09 47.52610 -55.14510 35095 ft 506 kts 59°
2026-05-06 00:09 47.55698 -55.05121 35270 ft 507 kts 59°
2026-05-06 00:09 47.57217 -55.00488 35428 ft 507 kts 59°
2026-05-06 00:10 47.58758 -54.95780 35573 ft 507 kts 59°
2026-05-06 00:10 47.60296 -54.91073 35685 ft 507 kts 59°
2026-05-06 00:10 47.61834 -54.86356 35801 ft 508 kts 59°
2026-05-06 00:10 47.63372 -54.81632 35928 ft 508 kts 59°
2026-05-06 00:11 47.64902 -54.76923 36018 ft 507 kts 59°
2026-05-06 00:11 47.67938 -54.67550 36112 ft 508 kts 59°
2026-05-06 00:12 47.70999 -54.58066 36110 ft 509 kts 59°
2026-05-06 00:12 47.74058 -54.48552 36112 ft 509 kts 59°
2026-05-06 00:13 47.77107 -54.39036 36102 ft 509 kts 59°
2026-05-06 00:13 47.80126 -54.29577 36089 ft 509 kts 59°
2026-05-06 00:14 47.83169 -54.20006 36084 ft 508 kts 59°
2026-05-06 00:14 47.86166 -54.10545 36080 ft 508 kts 59°
2026-05-06 00:15 47.89171 -54.01022 36077 ft 507 kts 59°
2026-05-06 00:15 47.92164 -53.91503 36071 ft 507 kts 59°
2026-05-06 00:16 47.95147 -53.81979 36067 ft 506 kts 60°
2026-05-06 00:16 47.98101 -53.72512 36068 ft 506 kts 60°
2026-05-06 00:17 48.01072 -53.62958 36060 ft 506 kts 60°
2026-05-06 00:17 48.04026 -53.53416 36062 ft 506 kts 60°
2026-05-06 00:18 48.06973 -53.43864 36058 ft 506 kts 60°
2026-05-06 00:18 48.09914 -53.34294 36058 ft 506 kts 60°
2026-05-06 00:19 48.12850 -53.24703 36056 ft 507 kts 60°
2026-05-06 00:19 48.15760 -53.15161 36060 ft 507 kts 60°
2026-05-06 00:20 48.18680 -53.05547 36062 ft 507 kts 60°
2026-05-06 00:20 48.21594 -52.95915 36059 ft 507 kts 60°
2026-05-06 00:21 48.24506 -52.86257 36065 ft 507 kts 60°
2026-05-06 00:21 48.27405 -52.76600 36070 ft 508 kts 60°
2026-05-06 00:22 48.30302 -52.66913 36075 ft 508 kts 60°
2026-05-06 00:22 48.33188 -52.57223 36084 ft 508 kts 61°
2026-05-06 00:23 48.36071 -52.47507 36084 ft 508 kts 61°
2026-05-06 00:23 48.38944 -52.37782 36093 ft 508 kts 61°
2026-05-06 00:24 48.41789 -52.28118 36085 ft 508 kts 61°
2026-05-06 00:24 48.44647 -52.18369 36089 ft 509 kts 61°
2026-05-06 00:25 48.47496 -52.08611 36092 ft 509 kts 61°
2026-05-06 00:25 48.50340 -51.98828 36091 ft 509 kts 62°
2026-05-06 00:26 48.52993 -51.88901 36093 ft 511 kts 64°
2026-05-06 00:26 48.55533 -51.78879 36095 ft 511 kts 64°
2026-05-06 00:27 48.58065 -51.68921 36094 ft 511 kts 64°
2026-05-06 00:27 48.60632 -51.58909 36092 ft 511 kts 64°
2026-05-06 00:28 48.63206 -51.48869 36091 ft 511 kts 64°
2026-05-06 00:28 48.65766 -51.38836 36093 ft 511 kts 64°
2026-05-06 00:29 48.68315 -51.28790 36096 ft 511 kts 64°
2026-05-06 00:29 48.70855 -51.18737 36088 ft 511 kts 64°
2026-05-06 00:30 48.73371 -51.08731 36092 ft 511 kts 64°
2026-05-06 00:30 48.75890 -50.98671 36102 ft 511 kts 64°
2026-05-06 00:31 48.78408 -50.88567 36099 ft 512 kts 64°
2026-05-06 00:31 48.80914 -50.78469 36096 ft 512 kts 64°
2026-05-06 00:32 48.83415 -50.68343 36087 ft 512 kts 64°
2026-05-06 00:32 48.85906 -50.58213 36085 ft 513 kts 64°
2026-05-06 00:33 48.88394 -50.48046 36102 ft 513 kts 65°
2026-05-06 00:33 48.90874 -50.37867 36094 ft 513 kts 65°
2026-05-06 00:34 48.93332 -50.27734 36090 ft 513 kts 65°
2026-05-06 00:34 48.95794 -50.17534 36093 ft 514 kts 65°
2026-05-06 00:35 48.98255 -50.07300 36093 ft 514 kts 65°
2026-05-06 00:35 49.00530 -49.96968 36093 ft 518 kts 72°
2026-05-06 00:36 49.02107 -49.86222 36096 ft 520 kts 74°
2026-05-06 00:36 49.03584 -49.75487 36092 ft 521 kts 74°
2026-05-06 00:37 49.05099 -49.64624 36096 ft 521 kts 74°
2026-05-06 00:37 49.06628 -49.53816 36098 ft 521 kts 74°
2026-05-06 00:38 49.08156 -49.43011 36102 ft 522 kts 74°
2026-05-06 00:38 49.09664 -49.32261 36098 ft 522 kts 74°
2026-05-06 00:39 49.11171 -49.21421 36105 ft 522 kts 75°